星链-34713 (STARLINK-34713)

导读

STARLINK-34713是美国SpaceX公司星链星座中的一颗低轨通信卫星,官方记录显示它于2025年7月17日进入预定轨道,轨道倾角53度,近地点446千米、远地点448千米。星链项目旨在构建全球卫星互联网,为全球缺乏基础设施的偏远地区及特殊场景提供高速低延迟宽带服务,该卫星的成功入轨进一步完善了星链低轨星座的全球覆盖能力。

基本信息
目录编号:
64906
目录名称:
STARLINK-34713
国际标识:
2025-157C
轨道中心:
EARTH
卫星名称:
星链-34713
卫星全名:
星链-34713 (STARLINK-34713)
卫星状态:
在轨 (已飞行322 天)
发射日期:
2025-07-26 UTC
国别 :
美国 (US)
星等 :
--
轨道信息
数据来源 国际轨道数据
星历时间: 2026-06-13T07:32:41+0800
18小时前
查看轨道信息
半长轴: 6853.325km
偏心率: 0.0001081
轨道倾角: 53.159°
近地点辐角 72.183°
升交点赤经 263.025°
平近点角 287.928°
近地点: 474.447km
远地点: 475.929km
周期: 94.105分钟
每日圈数: 15.302093
详细信息
固有亮度:
5
最大亮度:
2.5
卫星平台:
Starlink V1.0
覆盖范围:
全球
运营商:
太空探索技术公司
运营商所在国:
美国
制造商(研发单位):
太空探索技术公司
制造商所在国:
美国
使用方式:
暂无
卫星简介
Starlink 计划是 SpaceX 推出的全球卫星互联网项目,通过发射低轨道卫星,为全球尤其是偏远地区提供高速、低延迟的互联网服务。自 2019 年起,Starlink 已部署数千颗卫星,旨在缩小全球数字鸿沟,推动互联网普及。该项目还为军事、航空等行业提供通信支持,带来广泛经济效益。
2D轨道图
3D轨道图
轨道高度分析图
轨道倾角分析图
轨道综合分析图
查看轨道综合分析图